Pittsburgh, PA

5:23 PM EST on December 06, 2016 (GMT -0500)
Allegheny County

Weather History for KAGC - January, 2013

Change the Weather History Date:

Wednesday, January 2, 2013

  Actual Average Record
Temperature  
Mean Temperature 21 °F -  
Max Temperature 25 °F 37 °F 66 °F (2000)
Min Temperature 17 °F 20 °F 10 °F (1999)
Degree Days  
Heating Degree Days 44    
Moisture  
Dew Point 12 °F    
Average Humidity 67    
Maximum Humidity 77    
Minimum Humidity 55    
Precipitation  
Precipitation 0.00 in - - ()
Sea Level Pressure  
Sea Level Pressure 30.18 in    
Wind  
Wind Speed 5 mph (West)    
Max Wind Speed 14 mph    
Max Gust Speed -    
Visibility 10 miles    
Events      
Averages and records for this station are not official NWS values.
T = Trace of Precipitation, MM = Missing Value Source: NWS Daily Summary

Daily Weather History Graph

Daily Weather History Graph

Search for Another Location

Airport or City:

Trip Planner

Search our weather history database for the weather conditions in past years. The results will help you decide how hot, cold, wet, or windy it might be!

Date:

Astronomy

Jan. 02, 2013 Rise Set
Actual Time 7:42 AM EST 5:05 PM EST
Civil Twilight 7:12 AM EST 5:35 PM EST
Nautical Twilight 6:38 AM EST 6:09 PM EST
Astronomical Twilight 6:05 AM EST 6:42 PM EST
Moon 10:36 PM EST (1/2) 10:22 AM EST (1/2)
Length of Visible Light 10h 23m
Length of Day
9h 22m
Waning Gibbous, 75% of the Moon is Illuminated
Jan 2
Waning Gibbous
Jan 4
Last Quarter
Jan 11
New
Jan 18
First Quarter
Jan 26
Full

Hourly Weather History & Observations

Time (EST) Temp. Windchill Dew Point Humidity Pressure Visibility Wind Dir Wind Speed Gust Speed Precip Events Conditions
12:53 AM 21.0 °F 16.2 °F 14.0 °F 74% 30.09 in 10.0 mi NW 3.5 mph - N/A   Mostly Cloudy
1:53 AM 21.0 °F 16.2 °F 12.9 °F 71% 30.09 in 10.0 mi NW 3.5 mph - N/A   Overcast
2:53 AM 21.0 °F 16.2 °F 12.9 °F 71% 30.12 in 10.0 mi WNW 3.5 mph - N/A   Overcast
3:53 AM 21.0 °F 16.2 °F 12.9 °F 71% 30.11 in 10.0 mi NW 3.5 mph - N/A   Overcast
4:53 AM 19.9 °F 13.4 °F 12.9 °F 74% 30.12 in 10.0 mi West 4.6 mph - N/A   Overcast
5:53 AM 19.9 °F 11.1 °F 12.9 °F 74% 30.13 in 10.0 mi West 6.9 mph - N/A   Overcast
6:53 AM 19.4 °F 10.4 °F 12.2 °F 74% 30.08 in 10.0 mi WNW 6.9 mph - N/A   Mostly Cloudy
7:07 AM 19.4 °F 10.4 °F 12.2 °F 74% 30.09 in 10.0 mi West 6.9 mph - N/A   Scattered Clouds
7:53 AM 17.1 °F 8.7 °F 10.9 °F 77% 30.18 in 10.0 mi West 5.8 mph - N/A   Clear
8:35 AM 17.6 °F 9.3 °F 10.4 °F 73% 30.12 in 10.0 mi West 5.8 mph - N/A   Overcast
8:53 AM 18.0 °F 11.1 °F 10.9 °F 74% 30.19 in 10.0 mi WSW 4.6 mph - N/A   Mostly Cloudy
9:53 AM 19.0 °F 11.1 °F 12.0 °F 74% 30.21 in 10.0 mi SSW 5.8 mph - N/A   Overcast
10:53 AM 21.0 °F 12.4 °F 12.0 °F 68% 30.21 in 10.0 mi SSW 6.9 mph - N/A   Overcast
11:53 AM 21.9 °F 14.5 °F 12.9 °F 68% 30.21 in 10.0 mi WSW 5.8 mph - N/A   Overcast
12:53 PM 24.1 °F 12.0 °F 12.9 °F 62% 30.20 in 10.0 mi West 13.8 mph - N/A   Scattered Clouds
1:53 PM 24.1 °F 13.7 °F 12.0 °F 60% 30.19 in 10.0 mi West 10.4 mph - N/A   Clear
2:53 PM 25.0 °F 15.5 °F 10.9 °F 55% 30.20 in 10.0 mi West 9.2 mph - N/A   Clear
3:53 PM 25.0 °F 16.3 °F 10.9 °F 55% 30.20 in 10.0 mi West 8.1 mph - N/A   Clear
4:53 PM 23.0 °F 13.9 °F 10.0 °F 58% 30.21 in 10.0 mi WSW 8.1 mph - N/A   Clear
5:53 PM 21.9 °F 15.7 °F 10.0 °F 60% 30.22 in 10.0 mi West 4.6 mph - N/A   Clear
6:53 PM 21.9 °F 14.5 °F 10.0 °F 60% 30.22 in 10.0 mi WSW 5.8 mph - N/A   Clear
7:53 PM 21.9 °F 17.2 °F 10.0 °F 60% 30.24 in 10.0 mi WNW 3.5 mph - N/A   Clear
8:53 PM 21.0 °F 16.2 °F 10.0 °F 63% 30.25 in 10.0 mi West 3.5 mph - N/A   Clear
9:53 PM 21.0 °F 14.6 °F 10.0 °F 63% 30.26 in 10.0 mi West 4.6 mph - N/A   Clear
10:53 PM 21.0 °F - 10.9 °F 65% 30.27 in 10.0 mi Calm Calm - N/A   Clear
11:53 PM 19.9 °F - 10.0 °F 65% 30.25 in 10.0 mi Calm Calm - N/A   Clear